Regional Weather Roundup
Issued by NWS Northern Indiana

Home | Current Version | Previous Version | Text Only | Print | Product List | Glossary On
Versions: 1 2 3 4 5 6 7 8 9 10 11 12 13 14 15 16 17 18 19 20 21 22 23 24 25 26 27 28 29 30 31 32 33 34 35 36 37 38 39 40 41 42 43 44 45 46 47 48 49 50
769
ASUS43 KIWX 280110
RWRIWX

KIWX WEATHER ROUNDUP
NATIONAL WEATHER SERVICE NORTHERN INDIANA
900 PM EDT SUN MAY 27 2018

NOTE: "FAIR" INDICATES FEW OR NO CLOUDS BELOW 12,000 FEET WITH NO
SIGNIFICANT WEATHER AND/OR OBSTRUCTIONS TO VISIBILITY.

* THESE STATIONS ARE NOT UNDER NWS QUALITY CONTROL. THEY ALSO MAY NOT
  REPORT WEATHER SUCH AS PRECIPITATION OR FOG.

INZ001>027-280200-
NORTHERN INDIANA

CITY           SKY/WX    TMP DP  RH WIND       PRES   REMARKS
GARY*          PTCLDY    84  59  42 CALM      29.87F
VALPARAISO       N/A     86  59  39 NE5       29.89
LAPORTE*       FAIR      83  60  45 CALM      29.90S
KNOX*          FAIR      86  59  39 E5        29.89R
SOUTH BEND     FAIR      79  64  60 N3        29.90S
GOSHEN         FAIR      83  64  52 CALM      29.89S
ROCHESTER*     FAIR      86  63  45 CALM      29.89S
WARSAW*        FAIR      81  68  65 CALM      29.90R
AUBURN*        FAIR      79  64  61 CALM      29.91S
FORT WAYNE     FAIR      85  63  47 E3        29.91R
PERU/GRISSOM   FAIR      84  60  43 E3        29.89S
MARION*        FAIR      84  58  41 CALM      29.91S HAZE

$$
INZ028>050-280200-
CENTRAL INDIANA

CITY           SKY/WX    TMP DP  RH WIND       PRES   REMARKS
LAFAYETTE      FAIR      80  69  69 SW7       29.87R
KOKOMO*        FAIR      88  60  38 NE5       29.90S
MUNCIE*        FAIR      85  61  44 SE6       29.91R
INDIANAPOLIS   MOCLDY    81  67  62 SW6       29.90R

$$
MIZ043>046-050>051-056>058-064>065-071>073-077>080-280200-
SOUTHWEST LOWER MICHIGAN

CITY           SKY/WX    TMP DP  RH WIND       PRES   REMARKS
BATTLE CREEK   FAIR      84  59  42 SW5       29.90S
BENTON HARBOR  FAIR      78  67  68 CALM      29.88S
COLDWATER*     FAIR      84  56  38 CALM      29.91R
HILLSDALE*     CLOUDY    81  64  57 CALM      29.91S
HOLLAND        FAIR      80  63  55 CALM      29.88S
GRAND RAPIDS   MOCLDY    84  62  47 W7        29.88S
KALAMAZOO      FAIR      85  58  39 CALM      29.89S
STURGIS*       FAIR      82  65  55 CALM      29.89S
THREE RIVERS*  FAIR      85  58  39 CALM      29.90S

$$
OHZ001>008-015>018-024>025-280200-
NORTHWEST OHIO

CITY           SKY/WX    TMP DP  RH WIND       PRES   REMARKS
DEFIANCE       FAIR      82  66  58 CALM      29.90R
FINDLAY        FAIR      85  60  42 S5        29.90R
TOLEDO EXPRESS FAIR      80  64  58 CALM      29.89R
TOLEDO METCALF FAIR      82  70  66 E3        29.90R
LIMA           FAIR      81  62  52 E5        29.92S

$$
AND FOR LAKE MICHIGAN COASTAL AND OPEN LAKE BUOY OBSERVATIONS

STATION/POSITION TEMP    WIND        PRES    VSBY  WAVE
                 AIR SEA DIR/SP/G                  HT/PER
                 (F)     (DEG/KT/KT) (MB)    (MI)  (FT/S)
CALUMET HARBOR    76     100/  4/  7 1011.1F
MICHIGAN CITY     85      50/  4/  5   N/A
BURNS HARBOR      74      80/  5/ 11 1012.2
SAINT JOSEPH      80      CALM  /  1 1011.9
SOUTH LAKE BUOY   64 47  140/  8/  8 1011.4F         0
4 MI NW BRIDGMAN  75 69   90/  2/  2 1011.5          0
MICHIGAN CITY     75 70   90/  6/  6   N/A           1

$$
&&




USA.gov is the U.S. government's official web portal to all federal, state and local government web resources and services.